Location: *
(49.3500°N, 12.6000°E)
Time: 14:48:09
(UTC+00:00)

NOSS 3-2 (A) - Pass Details

Date: 18 October 2019
Orbit: 815 x 1393 km, 63.4° (Epoch: 19 November)

Event Time Altitude Azimuth Distance (km) Brightness Sun altitude
Rises 17:58:52 0° 192° (SSW) 3,383 6.4 -17.8°
Reaches altitude 10° 18:01:21 10° 185° (S) 2,495 5.6 -18.2°
Maximum altitude 18:06:39 39° 118° (ESE) 1,348 3.8 -19.0°
Enters shadow 18:08:34 32° 80° (E) 1,590 4.1 -19.3°
